| time (UTC) | temp F | wind direction | speed MPH | gust MPH | rain 1hr in | rain 24hr in | rain mn in | humidity % | barometer mb |
| 20260506194034 | 52 | 0.0 | 1.0 | 0.00 | 0.01 | 0.01 | 58 | 1014.2 | |
| 20260506193028 | 52 | 0.0 | 1.0 | 0.00 | 0.01 | 0.01 | 58 | 1014.1 | |
| 20260506192025 | 52 | 0.0 | 0.0 | 0.00 | 0.01 | 0.01 | 57 | 1014.0 | |
| 20260506191021 | 52 | 90 | 0.0 | 4.0 | 0.00 | 0.01 | 0.01 | 55 | 1013.8 |
| 20260506190114 | 52 | 90 | 0.0 | 2.0 | 0.00 | 0.01 | 0.01 | 54 | 1013.8 |
| 20260506185212 | 52 | 180 | 0.0 | 3.0 | 0.00 | 0.01 | 0.01 | 53 | 1013.7 |
| 20260506184107 | 53 | 81 | 1.0 | 3.0 | 0.00 | 0.01 | 0.01 | 54 | 1013.6 |
| 20260506183103 | 53 | 71 | 1.0 | 5.0 | 0.00 | 0.01 | 0.01 | 54 | 1013.5 |
| 20260506182101 | 53 | 68 | 1.0 | 3.0 | 0.00 | 0.01 | 0.01 | 55 | 1013.4 |
| 20260506181056 | 53 | 323 | 1.0 | 4.0 | 0.00 | 0.01 | 0.01 | 55 | 1013.2 |
| 20260506180052 | 53 | 292 | 1.0 | 4.0 | 0.00 | 0.01 | 0.01 | 55 | 1013.1 |
| 20260506175048 | 53 | 313 | 0.0 | 3.0 | 0.00 | 0.01 | 0.01 | 54 | 1013.0 |
| 20260506174045 | 53 | 78 | 1.0 | 5.0 | 0.00 | 0.01 | 0.01 | 53 | 1013.0 |
| 20260506173044 | 53 | 82 | 2.0 | 8.0 | 0.00 | 0.01 | 0.01 | 52 | 1012.9 |
| 20260506172059 | 54 | 19 | 2.0 | 7.0 | 0.00 | 0.01 | 0.01 | 50 | 1012.8 |
| 20260506171035 | 55 | 225 | 4.0 | 8.0 | 0.00 | 0.01 | 0.01 | 45 | 1012.6 |
| 20260506170031 | 55 | 248 | 3.0 | 10.0 | 0.00 | 0.01 | 0.01 | 45 | 1012.5 |
| 20260506165028 | 56 | 354 | 1.0 | 6.0 | 0.00 | 0.01 | 0.01 | 44 | 1012.4 |
| 20260506164024 | 56 | 14 | 2.0 | 7.0 | 0.00 | 0.01 | 0.01 | 42 | 1012.2 |
| 20260506163020 | 56 | 111 | 1.0 | 4.0 | 0.00 | 0.01 | 0.01 | 41 | 1012.1 |
| 20260506162015 | 57 | 82 | 3.0 | 7.0 | 0.00 | 0.01 | 0.01 | 39 | 1012.0 |
| 20260506161111 | 58 | 118 | 2.0 | 4.0 | 0.00 | 0.01 | 0.01 | 38 | 1012.0 |
| 20260506160107 | 58 | 357 | 2.0 | 8.0 | 0.00 | 0.01 | 0.01 | 37 | 1012.0 |
| 20260506155103 | 59 | 29 | 3.0 | 9.0 | 0.00 | 0.01 | 0.01 | 35 | 1012.0 |
| 20260506154100 | 59 | 225 | 1.0 | 5.0 | 0.00 | 0.01 | 0.01 | 36 | 1012.0 |
| 20260506153056 | 59 | 334 | 2.0 | 11.0 | 0.00 | 0.01 | 0.01 | 33 | 1012.0 |
| 20260506152052 | 60 | 333 | 2.0 | 9.0 | 0.00 | 0.01 | 0.01 | 32 | 1011.9 |
| 20260506151048 | 61 | 195 | 4.0 | 8.0 | 0.00 | 0.01 | 0.01 | 32 | 1011.7 |
| 20260506145037 | 60 | 84 | 4.0 | 8.0 | 0.00 | 0.01 | 0.01 | 34 | 1011.6 |
| 20260506144035 | 60 | 331 | 2.0 | 7.0 | 0.00 | 0.01 | 0.01 | 36 | 1011.7 |
| 20260506143051 | 60 | 326 | 2.0 | 8.0 | 0.00 | 0.01 | 0.01 | 37 | 1011.8 |
| 20260506142028 | 61 | 70 | 4.0 | 11.0 | 0.00 | 0.01 | 0.01 | 35 | 1011.7 |
| 20260506141022 | 61 | 75 | 2.0 | 10.0 | 0.00 | 0.01 | 0.01 | 37 | 1011.7 |
| 20260506140019 | 61 | 33 | 2.0 | 5.0 | 0.00 | 0.01 | 0.01 | 38 | 1011.6 |
| 20260506135035 | 60 | 64 | 3.0 | 9.0 | 0.00 | 0.01 | 0.01 | 37 | 1011.6 |
| 20260506134221 | 60 | 75 | 3.0 | 8.0 | 0.00 | 0.01 | 0.01 | 38 | 1011.6 |
| 20260506133108 | 60 | 82 | 4.0 | 8.0 | 0.00 | 0.01 | 0.01 | 36 | 1011.5 |
| 20260506132104 | 61 | 86 | 2.0 | 7.0 | 0.00 | 0.01 | 0.01 | 34 | 1011.4 |
| 20260506131100 | 61 | 79 | 2.0 | 6.0 | 0.00 | 0.01 | 0.01 | 33 | 1011.4 |
| 20260506130057 | 61 | 94 | 2.0 | 8.0 | 0.00 | 0.01 | 0.01 | 32 | 1011.3 |
| 20260506125054 | 61 | 84 | 3.0 | 8.0 | 0.00 | 0.01 | 0.01 | 33 | 1011.3 |
| 20260506124051 | 61 | 115 | 2.0 | 8.0 | 0.00 | 0.01 | 0.01 | 35 | 1011.2 |
| 20260506123106 | 61 | 43 | 4.0 | 10.0 | 0.00 | 0.01 | 0.01 | 35 | 1011.2 |
| 20260506122044 | 61 | 45 | 3.0 | 8.0 | 0.00 | 0.01 | 0.01 | 38 | 1011.2 |
| 20260506121040 | 61 | 60 | 2.0 | 6.0 | 0.00 | 0.01 | 0.01 | 39 | 1011.1 |
| 20260506120035 | 61 | 101 | 2.0 | 8.0 | 0.00 | 0.01 | 0.01 | 40 | 1011.1 |
| 20260506115032 | 60 | 74 | 3.0 | 8.0 | 0.00 | 0.01 | 0.01 | 41 | 1011.0 |
| 20260506113023 | 60 | 293 | 2.0 | 9.0 | 0.00 | 0.01 | 0.01 | 46 | 1011.1 |
| 20260506112020 | 60 | 113 | 2.0 | 7.0 | 0.00 | 0.01 | 0.01 | 49 | 1011.2 |
| 20260506111016 | 59 | 321 | 1.0 | 5.0 | 0.00 | 0.01 | 0.01 | 50 | 1011.2 |
| 20260506110113 | 59 | 49 | 2.0 | 6.0 | 0.00 | 0.01 | 0.01 | 51 | 1011.3 |
| 20260506105107 | 59 | 21 | 2.0 | 8.0 | 0.00 | 0.01 | 0.01 | 52 | 1011.3 |
| 20260506104124 | 57 | 352 | 2.0 | 9.0 | 0.00 | 0.01 | 0.01 | 54 | 1011.1 |
| 20260506103058 | 58 | 57 | 2.0 | 9.0 | 0.00 | 0.01 | 0.01 | 57 | 1011.1 |
| 20260506102056 | 58 | 146 | 1.0 | 3.0 | 0.00 | 0.01 | 0.01 | 62 | 1011.1 |
| 20260506101051 | 58 | 114 | 1.0 | 3.0 | 0.00 | 0.01 | 0.01 | 62 | 1011.0 |
| 20260506100047 | 58 | 324 | 1.0 | 5.0 | 0.00 | 0.01 | 0.01 | 62 | 1011.0 |
| 20260506095043 | 58 | 345 | 2.0 | 8.0 | 0.00 | 0.01 | 0.01 | 65 | 1011.1 |
| 20260506094040 | 58 | 91 | 1.0 | 5.0 | 0.00 | 0.01 | 0.01 | 68 | 1011.0 |
| 20260506093036 | 57 | 9 | 1.0 | 5.0 | 0.00 | 0.01 | 0.01 | 70 | 1011.0 |
| 20260506092032 | 56 | 343 | 3.0 | 7.0 | 0.00 | 0.01 | 0.01 | 70 | 1010.9 |
| 20260506091028 | 56 | 316 | 0.0 | 3.0 | 0.00 | 0.01 | 0.01 | 74 | 1010.8 |
| 20260506090025 | 56 | 326 | 1.0 | 6.0 | 0.00 | 0.01 | 0.01 | 74 | 1010.9 |
| 20260506085021 | 56 | 320 | 1.0 | 4.0 | 0.00 | 0.01 | 0.01 | 78 | 1010.8 |
| 20260506084037 | 55 | 341 | 1.0 | 4.0 | 0.00 | 0.01 | 0.01 | 83 | 1010.8 |
| 20260506083113 | 54 | 304 | 0.0 | 3.0 | 0.00 | 0.01 | 0.01 | 88 | 1010.7 |
| 20260506082110 | 53 | 337 | 2.0 | 4.0 | 0.00 | 0.01 | 0.01 | 92 | 1010.7 |
| 20260506081106 | 52 | 342 | 1.0 | 4.0 | 0.00 | 0.01 | 0.01 | 94 | 1010.8 |
| 20260506080105 | 52 | 360 | 1.0 | 5.0 | 0.00 | 0.01 | 0.01 | 96 | 1010.8 |
| 20260506073051 | 50 | 318 | 2.0 | 4.0 | 0.01 | 0.01 | 0.01 | 99 | 1010.7 |
| 20260506072107 | 50 | 298 | 0.0 | 2.0 | 0.01 | 0.01 | 0.01 | 99 | 1010.8 |
| 20260506071043 | 50 | 108 | 0.0 | 2.0 | 0.01 | 0.01 | 0.01 | 99 | 1010.7 |
| 20260506062023 | 48 | 121 | 1.0 | 4.0 | 0.00 | 0.00 | 0.00 | 97 | 1010.5 |
| 20260506061017 | 48 | 301 | 2.0 | 4.0 | 0.00 | 0.00 | 0.00 | 97 | 1010.4 |
| 20260506060114 | 48 | 79 | 1.0 | 7.0 | 0.00 | 0.00 | 0.00 | 96 | 1010.4 |
| 20260506051055 | 48 | 349 | 2.0 | 6.0 | 0.00 | 0.00 | 0.00 | 95 | 1010.4 |
| 20260506045049 | 47 | 330 | 2.0 | 6.0 | 0.00 | 0.00 | 0.00 | 93 | 1010.3 |
| 20260506044106 | 48 | 273 | 1.0 | 6.0 | 0.00 | 0.00 | 0.00 | 93 | 1010.3 |
| 20260506043041 | 48 | 338 | 1.0 | 4.0 | 0.00 | 0.00 | 0.00 | 92 | 1010.3 |
| 20260506042039 | 47 | 79 | 1.0 | 5.0 | 0.00 | 0.00 | 0.00 | 91 | 1010.2 |
| 20260506041033 | 48 | 197 | 0.0 | 4.0 | 0.00 | 0.00 | 0.00 | 91 | 1010.2 |
| 20260506040031 | 48 | 315 | 1.0 | 6.0 | 0.00 | 0.00 | 0.00 | 89 | 1010.3 |
| 20260506035028 | 48 | 315 | 2.0 | 7.0 | 0.00 | 0.00 | 0.00 | 89 | 1010.4 |
| 20260506034022 | 48 | 335 | 2.0 | 7.0 | 0.00 | 0.00 | 0.00 | 88 | 1010.4 |
| 20260506033019 | 48 | 351 | 2.0 | 6.0 | 0.00 | 0.00 | 0.00 | 87 | 1010.5 |
| 20260506032057 | 48 | 338 | 0.0 | 2.0 | 0.00 | 0.00 | 0.00 | 86 | 1010.5 |
| 20260506031112 | 48 | 23 | 0.0 | 4.0 | 0.00 | 0.00 | 0.00 | 85 | 1010.5 |
| 20260506030108 | 48 | 353 | 1.0 | 4.0 | 0.00 | 0.00 | 0.00 | 85 | 1010.6 |
| 20260506025104 | 48 | 16 | 2.0 | 5.0 | 0.00 | 0.00 | 0.00 | 84 | 1010.6 |
| 20260506024101 | 49 | 327 | 1.0 | 4.0 | 0.00 | 0.00 | 0.00 | 82 | 1010.6 |
| 20260506023057 | 49 | 312 | 1.0 | 6.0 | 0.00 | 0.00 | 0.00 | 81 | 1010.6 |
| 20260506022054 | 49 | 326 | 3.0 | 10.0 | 0.00 | 0.00 | 0.00 | 81 | 1010.8 |
| 20260506021049 | 49 | 349 | 0.0 | 3.0 | 0.00 | 0.00 | 0.00 | 80 | 1010.8 |
| 20260506020045 | 49 | 332 | 1.0 | 4.0 | 0.00 | 0.00 | 0.00 | 79 | 1010.7 |
| 20260506015043 | 49 | 82 | 1.0 | 4.0 | 0.00 | 0.00 | 0.00 | 79 | 1010.7 |
| 20260506014058 | 50 | 282 | 1.0 | 3.0 | 0.00 | 0.00 | 0.00 | 78 | 1010.7 |
| 20260506013034 | 50 | 352 | 1.0 | 5.0 | 0.00 | 0.00 | 0.00 | 77 | 1010.8 |
| 20260506012030 | 50 | 338 | 0.0 | 3.0 | 0.00 | 0.00 | 0.00 | 77 | 1010.8 |
| 20260506011027 | 50 | 50 | 1.0 | 4.0 | 0.00 | 0.00 | 0.00 | 77 | 1010.8 |
| 20260506010023 | 50 | 247 | 3.0 | 9.0 | 0.00 | 0.00 | 0.00 | 77 | 1010.8 |
| 20260506005021 | 50 | 356 | 1.0 | 4.0 | 0.00 | 0.00 | 0.00 | 76 | 1011.0 |
| 20260506004017 | 50 | 8 | 1.0 | 4.0 | 0.00 | 0.00 | 0.00 | 76 | 1011.0 |
| 20260506003112 | 50 | 4 | 2.0 | 8.0 | 0.00 | 0.00 | 0.00 | 76 | 1011.1 |
| 20260506002108 | 50 | 286 | 1.0 | 7.0 | 0.00 | 0.00 | 0.00 | 77 | 1011.1 |
| 20260506001105 | 50 | 285 | 1.0 | 2.0 | 0.00 | 0.00 | 0.00 | 77 | 1011.2 |
| 20260505235057 | 50 | 110 | 1.0 | 4.0 | 0.00 | 0.01 | 0.00 | 77 | 1011.3 |
| 20260505234054 | 51 | 351 | 1.0 | 7.0 | 0.00 | 0.01 | 0.00 | 77 | 1011.4 |
| 20260505233050 | 51 | 315 | 1.0 | 5.0 | 0.00 | 0.01 | 0.00 | 76 | 1011.4 |
| 20260505232046 | 51 | 19 | 1.0 | 5.0 | 0.00 | 0.01 | 0.00 | 77 | 1011.4 |
| 20260505231042 | 51 | 95 | 1.0 | 4.0 | 0.00 | 0.01 | 0.00 | 78 | 1011.4 |
| 20260505230039 | 51 | 1 | 1.0 | 4.0 | 0.00 | 0.01 | 0.00 | 79 | 1011.5 |
| 20260505225034 | 51 | 356 | 1.0 | 6.0 | 0.00 | 0.01 | 0.00 | 79 | 1011.6 |
| 20260505224031 | 51 | 309 | 1.0 | 4.0 | 0.00 | 0.01 | 0.00 | 79 | 1011.6 |
| 20260505223048 | 51 | 352 | 1.0 | 8.0 | 0.00 | 0.01 | 0.00 | 80 | 1011.7 |
| 20260505222023 | 51 | 340 | 1.0 | 5.0 | 0.00 | 0.01 | 0.00 | 80 | 1011.6 |
| 20260505221039 | 51 | 293 | 2.0 | 10.0 | 0.00 | 0.02 | 0.00 | 80 | 1011.6 |
| 20260505220015 | 51 | 3 | 1.0 | 7.0 | 0.00 | 0.04 | 0.00 | 80 | 1011.7 |
| 20260505215112 | 51 | 0.0 | 3.0 | 0.00 | 0.06 | 0.05 | 80 | 1011.8 | |
| 20260505214107 | 52 | 340 | 2.0 | 7.0 | 0.00 | 0.09 | 0.05 | 80 | 1011.9 |
| 20260505213103 | 52 | 332 | 2.0 | 6.0 | 0.00 | 0.13 | 0.05 | 80 | 1011.8 |
| 20260505212059 | 52 | 322 | 1.0 | 6.0 | 0.00 | 0.17 | 0.05 | 81 | 1011.8 |
| 20260505211112 | 52 | 314 | 1.0 | 6.0 | 0.00 | 0.21 | 0.05 | 86 | 1011.9 |
| 20260505210050 | 52 | 20 | 2.0 | 6.0 | 0.00 | 0.22 | 0.05 | 89 | 1011.8 |
| 20260505205045 | 52 | 86 | 1.0 | 5.0 | 0.00 | 0.26 | 0.05 | 91 | 1011.8 |
| 20260505204043 | 52 | 17 | 2.0 | 7.0 | 0.00 | 0.32 | 0.05 | 92 | 1011.8 |
| 20260505203037 | 52 | 315 | 0.0 | 2.0 | 0.00 | 0.35 | 0.05 | 91 | 1011.9 |
| 20260505202035 | 52 | 0.0 | 0.0 | 0.00 | 0.43 | 0.05 | 91 | 1011.8 | |
| 20260505201120 | 52 | 0.0 | 0.0 | 0.00 | 0.54 | 0.05 | 90 | 1011.8 | |
| 20260505200056 | 52 | 112 | 1.0 | 2.0 | 0.00 | 0.72 | 0.05 | 89 | 1011.7 |
| 20260505195052 | 52 | 0.0 | 0.0 | 0.00 | 0.83 | 0.05 | 89 | 1011.6 |